Clear but hazy
Partly cloudy
Partly cloudy
Partly cloudy
Partly cloudy
Overcast with light rain
Overcast
(°F)
46°
46°
49°
49°
52°
52°
55°
55°
57°
57°
58°
58°
58°
58°
(°F)
44°
46°
50°
52°
54°
55°
54°
SE
SE
SE
SSE
SSE
S
S
(mph)
0-5
3-7
4-8
5-10
5-11
6-13
6-14
(in)
0
0
0
0
0
0
0
(%)
21
20
8
14
21
25
37

Sun elevation

/ 9.4°
sun-icon
UV 4
06:51
20:20
Waxing gibbous moon (131°)
16:06
05:03

METAR for Ioannina (LGIO)

Time Conditions Temperature/
Dewpoint
Wind Visibility Weather Clouds Pressure Change Raw
44.6°F / 44.6°F 1kt - 1010 - LGIO 190420Z AUTO VRB01KT //// // ////// 07/07 Q1010 RE//
46.4°F / 46.4°F variable 0kt - 1010 - LGIO 190350Z AUTO 00000KT //// // ////// 08/08 Q1010 RE//
46.4°F / 46.4°F 2kt - 1010 - LGIO 190320Z AUTO VRB02KT //// // ////// 08/08 Q1010 RE//
46.4°F / 46.4°F 1kt - 1010 - LGIO 190250Z AUTO VRB01KT //// // ////// 08/08 Q1010 RE//
MVFR 48.2°F / 46.4°F 190º 2kt 9700m Light Rain 1.00mm precipitation Few Clouds 1500ft
Broken Clouds 2500ft
1010 - LGIO 190220Z 19002KT 9999 -RA FEW015 BKN025 09/08 Q1010
MVFR 48.2°F / 48.2°F 170º 2kt 9700m Light Rain 1.00mm precipitation Scattered Clouds 1300ft
Broken Clouds 2500ft
1010 - LGIO 190150Z 17002KT 9999 -RA SCT013 BKN025 09/09 Q1010
48.2°F / 48.2°F 2kt - 1010 - LGIO 190120Z AUTO VRB02KT //// // ////// 09/09 Q1010 RE//
48.2°F / 48.2°F 1kt - 1011 - LGIO 190050Z AUTO VRB01KT //// // ////// 09/09 Q1011 RE//
46.4°F / 46.4°F 2kt - 1011 - LGIO 190020Z AUTO VRB02KT //// // ////// 08/08 Q1011 RE//
46.4°F / 46.4°F 20º variable 270º to 030º 5kt - 1011 - LGIO 182350Z AUTO 02005KT 270V030 //// // ////// 08/08 Q1011 RE//
48.2°F / 46.4°F 220º variable 190º to 250º 4kt - 1011 - LGIO 182320Z AUTO 22004KT 190V250 //// // ////// 09/08 Q1011 RE//
46.4°F / 46.4°F variable 0kt - 1011 - LGIO 182250Z AUTO 00000KT //// // ////// 08/08 Q1011 RE//
46.4°F / 46.4°F 2kt - 1011 - LGIO 182220Z AUTO VRB02KT //// // ////// 08/08 Q1011 RE//
46.4°F / 46.4°F 2kt - 1011 - LGIO 182150Z AUTO VRB02KT //// // ////// 08/08 Q1011 RE//
46.4°F / 46.4°F 3kt - 1011 - LGIO 182120Z AUTO VRB03KT //// // ////// 08/08 Q1011 RE//
46.4°F / 44.6°F 1kt - 1011 - LGIO 182050Z AUTO VRB01KT //// // ////// 08/07 Q1011 RE//
46.4°F / 42.8°F 2kt - 1011 - LGIO 182020Z AUTO VRB02KT //// // ////// 08/06 Q1011 RE//
46.4°F / 42.8°F 2kt - 1011 - LGIO 181950Z AUTO VRB02KT //// // ////// 08/06 Q1011 RE//
48.2°F / 42.8°F 1kt - 1011 - LGIO 181920Z AUTO VRB01KT //// // ////// 09/06 Q1011 RE//
MVFR 48.2°F / 42.8°F 260º 2kt 9700m - Broken Clouds 3000ft 1011 - LGIO 181850Z 26002KT 9999 BKN030 09/06 Q1011
MVFR 50°F / 42.8°F 250º 3kt 9700m - Broken Clouds 3000ft 1010 - LGIO 181820Z 25003KT 9999 BKN030 10/06 Q1010
MVFR 50°F / 42.8°F 280º variable 260º to 340º 7kt 9700m - Broken Clouds 3000ft 1010 - LGIO 181750Z 28007KT 260V340 9999 BKN030 10/06 Q1010
MVFR 51.8°F / 42.8°F 280º 3kt 9700m - Broken Clouds 3000ft 1010 - LGIO 181720Z 28003KT 9999 BKN030 11/06 Q1010
MVFR 53.6°F / 44.6°F 330º 9kt 9700m - Broken Clouds 3000ft 1009 - LGIO 181650Z 33009KT 9999 BKN030 12/07 Q1009

44.6°F / 44.6°F

[More]
Wind 1kt
Visibility
Weather -
Clouds
Pressure 1010
Change -
Raw LGIO 190420Z AUTO VRB01KT //// // ////// 07/07 Q1010 RE//

46.4°F / 46.4°F

[More]
Wind variable 0kt
Visibility
Weather -
Clouds
Pressure 1010
Change -
Raw LGIO 190350Z AUTO 00000KT //// // ////// 08/08 Q1010 RE//

46.4°F / 46.4°F

[More]
Wind 2kt
Visibility
Weather -
Clouds
Pressure 1010
Change -
Raw LGIO 190320Z AUTO VRB02KT //// // ////// 08/08 Q1010 RE//

46.4°F / 46.4°F

[More]
Wind 1kt
Visibility
Weather -
Clouds
Pressure 1010
Change -
Raw LGIO 190250Z AUTO VRB01KT //// // ////// 08/08 Q1010 RE//

MVFR

48.2°F / 46.4°F

[More]
Wind 190º 2kt
Visibility 9700m
Weather Light Rain 1.00mm precipitation
Clouds Few Clouds 1500ft
Broken Clouds 2500ft
Pressure 1010
Change -
Raw LGIO 190220Z 19002KT 9999 -RA FEW015 BKN025 09/08 Q1010

MVFR

48.2°F / 48.2°F

[More]
Wind 170º 2kt
Visibility 9700m
Weather Light Rain 1.00mm precipitation
Clouds Scattered Clouds 1300ft
Broken Clouds 2500ft
Pressure 1010
Change -
Raw LGIO 190150Z 17002KT 9999 -RA SCT013 BKN025 09/09 Q1010

48.2°F / 48.2°F

[More]
Wind 2kt
Visibility
Weather -
Clouds
Pressure 1010
Change -
Raw LGIO 190120Z AUTO VRB02KT //// // ////// 09/09 Q1010 RE//

48.2°F / 48.2°F

[More]
Wind 1kt
Visibility
Weather -
Clouds
Pressure 1011
Change -
Raw LGIO 190050Z AUTO VRB01KT //// // ////// 09/09 Q1011 RE//

46.4°F / 46.4°F

[More]
Wind 2kt
Visibility
Weather -
Clouds
Pressure 1011
Change -
Raw LGIO 190020Z AUTO VRB02KT //// // ////// 08/08 Q1011 RE//

46.4°F / 46.4°F

[More]
Wind 20º variable 270º to 030º 5kt
Visibility
Weather -
Clouds
Pressure 1011
Change -
Raw LGIO 182350Z AUTO 02005KT 270V030 //// // ////// 08/08 Q1011 RE//

48.2°F / 46.4°F

[More]
Wind 220º variable 190º to 250º 4kt
Visibility
Weather -
Clouds
Pressure 1011
Change -
Raw LGIO 182320Z AUTO 22004KT 190V250 //// // ////// 09/08 Q1011 RE//

46.4°F / 46.4°F

[More]
Wind variable 0kt
Visibility
Weather -
Clouds
Pressure 1011
Change -
Raw LGIO 182250Z AUTO 00000KT //// // ////// 08/08 Q1011 RE//

46.4°F / 46.4°F

[More]
Wind 2kt
Visibility
Weather -
Clouds
Pressure 1011
Change -
Raw LGIO 182220Z AUTO VRB02KT //// // ////// 08/08 Q1011 RE//

46.4°F / 46.4°F

[More]
Wind 2kt
Visibility
Weather -
Clouds
Pressure 1011
Change -
Raw LGIO 182150Z AUTO VRB02KT //// // ////// 08/08 Q1011 RE//

46.4°F / 46.4°F

[More]
Wind 3kt
Visibility
Weather -
Clouds
Pressure 1011
Change -
Raw LGIO 182120Z AUTO VRB03KT //// // ////// 08/08 Q1011 RE//

46.4°F / 44.6°F

[More]
Wind 1kt
Visibility
Weather -
Clouds
Pressure 1011
Change -
Raw LGIO 182050Z AUTO VRB01KT //// // ////// 08/07 Q1011 RE//

46.4°F / 42.8°F

[More]
Wind 2kt
Visibility
Weather -
Clouds
Pressure 1011
Change -
Raw LGIO 182020Z AUTO VRB02KT //// // ////// 08/06 Q1011 RE//

46.4°F / 42.8°F

[More]
Wind 2kt
Visibility
Weather -
Clouds
Pressure 1011
Change -
Raw LGIO 181950Z AUTO VRB02KT //// // ////// 08/06 Q1011 RE//

48.2°F / 42.8°F

[More]
Wind 1kt
Visibility
Weather -
Clouds
Pressure 1011
Change -
Raw LGIO 181920Z AUTO VRB01KT //// // ////// 09/06 Q1011 RE//

MVFR

48.2°F / 42.8°F

[More]
Wind 260º 2kt
Visibility 9700m
Weather -
Clouds Broken Clouds 3000ft
Pressure 1011
Change -
Raw LGIO 181850Z 26002KT 9999 BKN030 09/06 Q1011

MVFR

50°F / 42.8°F

[More]
Wind 250º 3kt
Visibility 9700m
Weather -
Clouds Broken Clouds 3000ft
Pressure 1010
Change -
Raw LGIO 181820Z 25003KT 9999 BKN030 10/06 Q1010

MVFR

50°F / 42.8°F

[More]
Wind 280º variable 260º to 340º 7kt
Visibility 9700m
Weather -
Clouds Broken Clouds 3000ft
Pressure 1010
Change -
Raw LGIO 181750Z 28007KT 260V340 9999 BKN030 10/06 Q1010

MVFR

51.8°F / 42.8°F

[More]
Wind 280º 3kt
Visibility 9700m
Weather -
Clouds Broken Clouds 3000ft
Pressure 1010
Change -
Raw LGIO 181720Z 28003KT 9999 BKN030 11/06 Q1010

MVFR

53.6°F / 44.6°F

[More]
Wind 330º 9kt
Visibility 9700m
Weather -
Clouds Broken Clouds 3000ft
Pressure 1009
Change -
Raw LGIO 181650Z 33009KT 9999 BKN030 12/07 Q1009

TAF for Ioannina (LGIO)

From till


From till Wind 3kt. Visibility 9700m. Scattered Clouds 2500ft. Scattered Clouds 8000ft.
With 40% probability, Temporarly from till Visibility 5000m. Rain . Few Clouds 1000ft. Broken Clouds 2500ft. Broken Clouds 8000ft.
With 30% probability, Temporarly from till Visibility 3000m. Thunderstorm Rain . Few Clouds 1800ft. Broken Clouds 2500ft. Broken Clouds 8000ft.

Raw: TAF LGIO 190200Z 1903/1912 VRB03KT 9999 SCT025 SCT080 PROB40 TEMPO 1903/1912 5000 RA FEW010 BKN025 BKN080 PROB30 TEMPO 1910/1912 3000 TSRA FEW018CB BKN025 BKN080

Radar and precipitation nowcast for Ioannina

Drizzle
Light
Moderate
Heavy
Very Heavy
Hail

The location marker is placed on Ioannina. This animation shows the precipitation radar for the selected time range, as well as a 2h forecast. Orange crosses indicate lightning. Data provided by nowcast.de (available in USA, Europe, Australia). Drizzle or light snow fall might be invisible for the radar. Precipitation intensity is colour coded, ranging from turquoise to red.

Current satellite and rain images for Ioannina, Greece

The location marker is placed on Ioannina. [More]

The real-time satellite image combines visible light during daytime with infrared radiation during nighttime. At night, the image is not dark as infrared radiation can detect temperature differences. Unfortunately, low clouds and fog are difficult to distinguish from ground temperatures and thus can be almost invisible during the night. Meteosat satellite images for Europe are updated in real-time every 5 minutes. GOES-16/GOES-17 (North & South America) and Himawari (Asia) images update every 10 minutes.

Precipitation is estimated from radar and satellites. Precipitation estimates from satellites are less accurate at night than during daytime.

© 2024 meteoblue, NOAA Satellites GOES-16 and EUMETSAT. Lightning data provided by nowcast.

Back to top
×
Hey there,
seems like you are using an ad blocker.

Advertising is essential to maintain our free website with unique detail and accuracy.

Please whitelist www.meteoblue.com on your ad blocker or consider buying one of our products:

Already have a subscription?
Then please login.